STARLINK-33959, 63817

Orbit data source: Space-Track

STARLINK-33959, 63817 is a payload satellite owned by SpaceX/Seattle (US) in LEO that was launched on Sun, 04 May 2025 UTC via an FALCON 9 launch vehicle from the Air Force Eastern Test Range (AFETR). Payload-class satellites include a variety of spacecraft equipped with specific instruments for various scientific and technological missions. These include communications satellites like Starlink; space stations such as the ISS; scientific satellites like the Hubble; Earth observation satellites from companies like Planet Labs, Umbra, and HawkEye 360; GPS; miniature CubeSats for education and research; and military/defense satellites.

Loading next visibility...
Identifier
63817, 2025-092P
Orbit
LEO
Country
Flag of USUS
Related business
Manufacturer
SpaceX/Seattle
Mission
Operational Commercial Communications
Bus & Motor
STARLINK V2MO, Unknown motor
Mass
575 kg wet, ~530 kg dry
Launch date (UTC)
2025-05-04 (6 months ago)
Launch vehicle
FALCON 9
Launch site
Air Force Eastern Test Range (AFETR)
Object type
Payload
Rocket body
Debris
Shape & HBR
Box + 2 Pan, 17.7 m
Radar Cross Section
36.964 m², Large (>1 m²)

Expand to show TLE details & history
Last TLE update: 11 hours ago

TLE from 11 hours ago
0 STARLINK-33959
1 63817U 25092P   25309.93968537  .00029300  00000-0  10694-2 0  9998
2 63817  43.0047 150.9955 0002335 275.4003  84.6583 15.27598284 29740
Epoch: 2025-11-05T22:33Z
TLE epoch observation values (Epoch: 2025-11-05T22:33:08.815Z)
Latitude
0.00001°
Longitude
127.30362°
Altitude
482.622 km
Speed
7.626 km/s
True Right ascension
10h 03m 58s
True Declination
0° 00' 00"
Sunlit
Object was in daylight at epoch
Visualization orbit readout
Latitude
Unknown
Longitude
Unknown
Altitude
Unknown
Speed
Unknown
Apparent Right ascension
Unknown
Apparent Declination
Unknown
Sunlit
N/A
Visualization observer readout
Local Sidereal Time
05:11:41
Azimuth
Unknown
Elevation
Unknown
Doppler factor
Unknown
Orbital elements
Apogee altitude
486.541 km
Perigee altitude
483.336 km
Semi-major axis
6,863.076 km
Eccentricity
0.00023
Inclination
43.0047°
RAAN
150.9955°
Arg. of periapsis
275.4003°
True anomaly
84.68494°
Mean anomaly
84.6583°
Eccentric anomaly
84.67162°
Mean motion
3.81738 °/min
Orbital period
94.31 mins
BSTAR
0.0010694
Loading maneuver chart data...
Computing Atmospheric mass density...
Loading historical data...
Loading historical data...
Loading historical data...
Loading historical data...
Loading historical data...
Loading historical data...
Loading historical data...

Documentation

Showing up to 5 results
|